Time,TemperatureF,DewpointF,PressureIn,WindDirection,WindDirectionDegrees,WindSpeedMPH,WindSpeedGustMPH,Humidity,HourlyPrecipIn,Conditions,Clouds,dailyrainin,SoftwareType,DateUTC
2013-02-23 00:07:00,17.6,14.0,30.07,WNW,300,0.0,2.0,86,0.00,,,0.00,weatherlink.com 1.10,2013-02-23 06:07:00,
2013-02-23 00:38:00,17.3,14.0,30.08,WNW,298,0.0,1.0,86,0.00,,,0.00,weatherlink.com 1.10,2013-02-23 06:38:00,
2013-02-23 00:53:00,16.7,14.0,30.07,WNW,298,0.0,0.0,87,0.00,,,0.00,weatherlink.com 1.10,2013-02-23 06:53:00,
2013-02-23 01:08:00,16.5,13.0,30.07,WNW,298,0.0,0.0,87,0.00,,,0.00,weatherlink.com 1.10,2013-02-23 07:08:00,
2013-02-23 01:23:00,16.1,13.0,30.07,WNW,297,0.0,1.0,87,0.00,,,0.00,weatherlink.com 1.10,2013-02-23 07:23:00,
2013-02-23 01:38:00,15.8,13.0,30.08,WNW,297,0.0,0.0,87,0.00,,,0.00,weatherlink.com 1.10,2013-02-23 07:38:00,
2013-02-23 01:53:00,15.6,12.0,30.08,WNW,297,0.0,0.0,87,0.00,,,0.00,weatherlink.com 1.10,2013-02-23 07:53:00,
2013-02-23 02:08:00,15.0,12.0,30.07,WNW,297,0.0,0.0,88,0.00,,,0.00,weatherlink.com 1.10,2013-02-23 08:08:00,
2013-02-23 02:23:00,14.2,11.0,30.06,WNW,296,0.0,0.0,88,0.00,,,0.00,weatherlink.com 1.10,2013-02-23 08:23:00,
2013-02-23 02:38:00,13.8,11.0,30.06,WNW,296,0.0,0.0,89,0.00,,,0.00,weatherlink.com 1.10,2013-02-23 08:38:00,
2013-02-23 02:53:00,13.7,11.0,30.06,NW,305,0.0,0.0,90,0.00,,,0.00,weatherlink.com 1.10,2013-02-23 08:53:00,
2013-02-23 03:08:00,13.6,11.0,30.06,NW,304,0.0,0.0,90,0.00,,,0.00,weatherlink.com 1.10,2013-02-23 09:08:00,
2013-02-23 03:23:00,13.4,11.0,30.05,NW,304,0.0,0.0,90,0.00,,,0.00,weatherlink.com 1.10,2013-02-23 09:23:00,
2013-02-23 03:38:00,13.1,11.0,30.05,NW,304,0.0,0.0,90,0.00,,,0.00,weatherlink.com 1.10,2013-02-23 09:38:00,
2013-02-23 03:53:00,12.8,11.0,30.05,WNW,302,0.0,0.0,90,0.00,,,0.00,weatherlink.com 1.10,2013-02-23 09:53:00,
2013-02-23 04:08:00,12.8,11.0,30.04,WNW,302,0.0,0.0,91,0.00,,,0.00,weatherlink.com 1.10,2013-02-23 10:08:00,
2013-02-23 04:23:00,12.6,10.0,30.04,NW,304,0.0,0.0,90,0.00,,,0.00,weatherlink.com 1.10,2013-02-23 10:23:00,
2013-02-23 04:38:00,12.6,11.0,30.05,West,281,0.0,0.0,91,0.00,,,0.00,weatherlink.com 1.10,2013-02-23 10:38:00,
2013-02-23 04:53:00,12.2,10.0,30.04,SSW,194,0.0,0.0,90,0.00,,,0.00,weatherlink.com 1.10,2013-02-23 10:53:00,
2013-02-23 05:08:00,11.7,10.0,30.04,SSW,195,0.0,0.0,91,0.00,,,0.00,weatherlink.com 1.10,2013-02-23 11:08:00,
2013-02-23 05:23:00,11.5,9.0,30.04,SSW,194,0.0,0.0,91,0.00,,,0.00,weatherlink.com 1.10,2013-02-23 11:23:00,
2013-02-23 05:38:00,11.3,9.0,30.04,SSW,200,0.0,1.0,91,0.00,,,0.00,weatherlink.com 1.10,2013-02-23 11:38:00,
2013-02-23 05:53:00,11.4,9.0,30.04,SSE,161,0.0,0.0,91,0.00,,,0.00,weatherlink.com 1.10,2013-02-23 11:53:00,
2013-02-23 06:08:00,11.2,9.0,30.04,SSE,152,0.0,1.0,91,0.00,,,0.00,weatherlink.com 1.10,2013-02-23 12:08:00,
2013-02-23 06:23:00,11.1,9.0,30.04,SSE,160,0.0,1.0,90,0.00,,,0.00,weatherlink.com 1.10,2013-02-23 12:23:00,
2013-02-23 06:38:00,10.8,9.0,30.04,SE,145,0.0,0.0,90,0.00,,,0.00,weatherlink.com 1.10,2013-02-23 12:38:00,
2013-02-23 06:53:00,10.4,8.0,30.03,SE,145,0.0,0.0,90,0.00,,,0.00,weatherlink.com 1.10,2013-02-23 12:53:00,
2013-02-23 07:08:00,10.2,8.0,30.03,SE,145,0.0,0.0,90,0.00,,,0.00,weatherlink.com 1.10,2013-02-23 13:08:00,
2013-02-23 07:23:00,10.6,9.0,30.02,SE,145,0.0,0.0,91,0.00,,,0.00,weatherlink.com 1.10,2013-02-23 13:23:00,
2013-02-23 07:38:00,11.3,9.0,30.02,SE,145,0.0,0.0,91,0.00,,,0.00,weatherlink.com 1.10,2013-02-23 13:38:00,
2013-02-23 07:53:00,13.1,11.0,30.03,SE,124,0.0,1.0,91,0.00,,,0.00,weatherlink.com 1.10,2013-02-23 13:53:00,
2013-02-23 08:08:00,13.8,11.0,30.03,SE,124,0.0,0.0,89,0.00,,,0.00,weatherlink.com 1.10,2013-02-23 14:08:00,
2013-02-23 08:23:00,14.7,12.0,30.03,SE,125,0.0,0.0,88,0.00,,,0.00,weatherlink.com 1.10,2013-02-23 14:23:00,
2013-02-23 08:38:00,17.2,14.0,30.03,ESE,123,0.0,0.0,87,0.00,,,0.00,weatherlink.com 1.10,2013-02-23 14:38:00,
2013-02-23 08:53:00,19.7,15.0,30.04,SE,141,0.0,1.0,83,0.00,,,0.00,weatherlink.com 1.10,2013-02-23 14:53:00,
2013-02-23 09:09:00,22.3,16.0,30.03,NNW,348,0.0,1.0,78,0.00,,,0.00,weatherlink.com 1.10,2013-02-23 15:09:00,
2013-02-23 09:24:00,24.6,18.0,30.04,SSE,150,0.0,2.0,76,0.00,,,0.00,weatherlink.com 1.10,2013-02-23 15:24:00,
2013-02-23 09:39:00,27.5,19.0,30.03,SSE,153,0.0,1.0,70,0.00,,,0.00,weatherlink.com 1.10,2013-02-23 15:39:00,
2013-02-23 09:54:00,29.2,19.0,30.03,ESE,109,0.0,2.0,66,0.00,,,0.00,weatherlink.com 1.10,2013-02-23 15:54:00,
2013-02-23 10:09:00,30.1,19.0,30.03,SSE,150,0.0,3.0,63,0.00,,,0.00,weatherlink.com 1.10,2013-02-23 16:09:00,
2013-02-23 10:24:00,31.0,19.0,30.03,North,351,0.0,1.0,62,0.00,,,0.00,weatherlink.com 1.10,2013-02-23 16:24:00,
2013-02-23 10:39:00,31.1,18.0,30.03,NW,321,0.0,2.0,59,0.00,,,0.00,weatherlink.com 1.10,2013-02-23 16:39:00,
2013-02-23 10:54:00,30.4,19.0,30.03,NNW,329,0.0,5.0,64,0.00,,,0.00,weatherlink.com 1.10,2013-02-23 16:54:00,
2013-02-23 11:09:00,30.4,18.0,30.03,NW,314,0.0,3.0,60,0.00,,,0.00,weatherlink.com 1.10,2013-02-23 17:09:00,
2013-02-23 11:24:00,31.1,19.0,30.04,East,101,0.0,3.0,61,0.00,,,0.00,weatherlink.com 1.10,2013-02-23 17:24:00,
2013-02-23 11:39:00,31.8,20.0,30.03,ESE,115,0.0,4.0,61,0.00,,,0.00,weatherlink.com 1.10,2013-02-23 17:39:00,
2013-02-23 11:54:00,33.0,19.0,30.03,ENE,65,0.0,3.0,57,0.00,,,0.00,weatherlink.com 1.10,2013-02-23 17:54:00,
2013-02-23 12:09:00,33.1,19.0,30.02,NW,318,1.0,4.0,56,0.00,,,0.00,weatherlink.com 1.10,2013-02-23 18:09:00,
2013-02-23 12:24:00,33.8,19.0,30.02,NW,315,0.0,3.0,56,0.00,,,0.00,weatherlink.com 1.10,2013-02-23 18:24:00,
2013-02-23 12:39:00,34.2,19.0,30.01,ENE,76,0.0,3.0,55,0.00,,,0.00,weatherlink.com 1.10,2013-02-23 18:39:00,
2013-02-23 12:54:00,35.1,20.0,30.01,SE,129,0.0,4.0,55,0.00,,,0.00,weatherlink.com 1.10,2013-02-23 18:54:00,
2013-02-23 13:09:00,34.8,20.0,30.00,NW,307,2.0,5.0,54,0.00,,,0.00,weatherlink.com 1.10,2013-02-23 19:09:00,
2013-02-23 13:24:00,34.5,21.0,30.00,NW,314,1.0,4.0,58,0.01,,,0.01,weatherlink.com 1.10,2013-02-23 19:24:00,
2013-02-23 13:39:00,35.2,20.0,30.00,NW,315,2.0,5.0,54,0.02,,,0.02,weatherlink.com 1.10,2013-02-23 19:39:00,
2013-02-23 13:54:00,35.2,20.0,29.99,SE,142,2.0,4.0,55,0.03,,,0.03,weatherlink.com 1.10,2013-02-23 19:54:00,
2013-02-23 14:09:00,35.6,21.0,29.99,East,86,0.0,5.0,55,0.04,,,0.04,weatherlink.com 1.10,2013-02-23 20:09:00,
2013-02-23 14:24:00,35.5,21.0,29.99,North,356,0.0,1.0,55,0.05,,,0.06,weatherlink.com 1.10,2013-02-23 20:24:00,
2013-02-23 14:39:00,35.5,20.0,29.98,NW,306,1.0,4.0,53,0.05,,,0.07,weatherlink.com 1.10,2013-02-23 20:39:00,
2013-02-23 14:54:00,34.8,20.0,29.98,SSE,159,1.0,5.0,56,0.04,,,0.08,weatherlink.com 1.10,2013-02-23 20:54:00,
2013-02-23 15:09:00,33.9,20.0,29.97,SSE,150,0.0,6.0,56,0.05,,,0.09,weatherlink.com 1.10,2013-02-23 21:09:00,
2013-02-23 15:24:00,33.3,20.0,29.97,ENE,77,0.0,6.0,58,0.03,,,0.09,weatherlink.com 1.10,2013-02-23 21:24:00,
2013-02-23 15:39:00,33.4,20.0,29.97,SSW,211,3.0,3.0,58,0.02,,,0.09,weatherlink.com 1.10,2013-02-23 21:39:00,
2013-02-23 15:55:00,33.4,20.0,29.97,SE,130,0.0,5.0,59,0.01,,,0.09,weatherlink.com 1.10,2013-02-23 21:55:00,
2013-02-23 16:10:00,33.8,21.0,29.97,SE,124,3.0,3.0,59,0.01,,,0.10,weatherlink.com 1.10,2013-02-23 22:10:00,
2013-02-23 16:25:00,33.3,20.0,29.96,South,169,0.0,4.0,59,0.01,,,0.10,weatherlink.com 1.10,2013-02-23 22:25:00,
2013-02-23 16:40:00,33.3,20.0,29.96,SE,136,0.0,3.0,59,0.01,,,0.10,weatherlink.com 1.10,2013-02-23 22:40:00,
2013-02-23 16:55:00,33.1,21.0,29.96,NW,325,0.0,3.0,61,0.01,,,0.10,weatherlink.com 1.10,2013-02-23 22:55:00,
2013-02-23 17:10:00,32.6,20.0,29.96,SE,127,0.0,5.0,61,0.00,,,0.10,weatherlink.com 1.10,2013-02-23 23:10:00,
2013-02-23 17:25:00,32.2,20.0,29.95,SSW,198,1.0,4.0,61,0.00,,,0.10,weatherlink.com 1.10,2013-02-23 23:25:00,
2013-02-23 17:40:00,31.7,20.0,29.96,SSW,200,0.0,4.0,62,0.00,,,0.10,weatherlink.com 1.10,2013-02-23 23:40:00,
2013-02-23 17:55:00,31.2,20.0,29.96,SSE,166,0.0,3.0,64,0.00,,,0.10,weatherlink.com 1.10,2013-02-23 23:55:00,
2013-02-23 18:10:00,30.6,20.0,29.95,South,188,0.0,2.0,64,0.00,,,0.10,weatherlink.com 1.10,2013-02-24 00:10:00,
2013-02-23 18:25:00,29.9,20.0,29.96,SSW,195,0.0,2.0,66,0.00,,,0.10,weatherlink.com 1.10,2013-02-24 00:25:00,
2013-02-23 18:40:00,29.4,20.0,29.95,SSE,160,0.0,1.0,67,0.00,,,0.10,weatherlink.com 1.10,2013-02-24 00:40:00,
2013-02-23 18:55:00,28.8,19.0,29.95,SE,135,0.0,1.0,68,0.00,,,0.10,weatherlink.com 1.10,2013-02-24 00:55:00,
2013-02-23 19:10:00,28.4,20.0,29.96,SSE,153,0.0,0.0,70,0.00,,,0.10,weatherlink.com 1.10,2013-02-24 01:10:00,
2013-02-23 19:25:00,28.1,19.0,29.96,SSW,207,1.0,1.0,70,0.00,,,0.10,weatherlink.com 1.10,2013-02-24 01:25:00,
2013-02-23 19:40:00,27.9,20.0,29.96,South,184,0.0,1.0,71,0.00,,,0.10,weatherlink.com 1.10,2013-02-24 01:40:00,
2013-02-23 19:55:00,27.7,19.0,29.96,SSW,204,0.0,1.0,71,0.00,,,0.10,weatherlink.com 1.10,2013-02-24 01:55:00,
2013-02-23 20:10:00,27.4,19.0,29.96,SE,133,0.0,1.0,71,0.00,,,0.10,weatherlink.com 1.10,2013-02-24 02:10:00,
2013-02-23 20:25:00,27.1,19.0,29.96,South,169,0.0,1.0,72,0.00,,,0.10,weatherlink.com 1.10,2013-02-24 02:25:00,
2013-02-23 20:40:00,26.8,20.0,29.97,SSE,163,0.0,1.0,74,0.00,,,0.10,weatherlink.com 1.10,2013-02-24 02:40:00,
2013-02-23 20:55:00,26.7,19.0,29.97,SSE,166,0.0,3.0,73,0.00,,,0.10,weatherlink.com 1.10,2013-02-24 02:55:00,
2013-02-23 21:10:00,26.6,19.0,29.98,SE,145,0.0,2.0,74,0.00,,,0.10,weatherlink.com 1.10,2013-02-24 03:10:00,
2013-02-23 21:25:00,26.3,19.0,29.97,SSE,155,0.0,1.0,74,0.00,,,0.10,weatherlink.com 1.10,2013-02-24 03:25:00,
2013-02-23 21:40:00,25.6,19.0,29.96,SSE,160,0.0,0.0,75,0.00,,,0.10,weatherlink.com 1.10,2013-02-24 03:40:00,
2013-02-23 21:55:00,25.3,19.0,29.97,South,169,0.0,1.0,76,0.00,,,0.10,weatherlink.com 1.10,2013-02-24 03:55:00,
2013-02-23 22:10:00,25.3,19.0,29.98,SSW,196,0.0,2.0,76,0.00,,,0.10,weatherlink.com 1.10,2013-02-24 04:10:00,
2013-02-23 22:25:00,25.3,19.0,29.98,SSE,163,0.0,1.0,77,0.00,,,0.10,weatherlink.com 1.10,2013-02-24 04:25:00,
2013-02-23 22:40:00,25.2,19.0,29.97,SSW,198,0.0,1.0,77,0.00,,,0.10,weatherlink.com 1.10,2013-02-24 04:40:00,
2013-02-23 22:55:00,25.0,19.0,29.98,SSW,207,0.0,1.0,78,0.00,,,0.10,weatherlink.com 1.10,2013-02-24 04:55:00,
2013-02-23 23:10:00,25.0,19.0,29.98,South,169,0.0,1.0,78,0.00,,,0.10,weatherlink.com 1.10,2013-02-24 05:10:00,
2013-02-23 23:25:00,24.8,19.0,29.99,SSE,158,0.0,1.0,79,0.00,,,0.10,weatherlink.com 1.10,2013-02-24 05:25:00,
2013-02-23 23:40:00,24.9,19.0,29.98,SW,215,0.0,1.0,79,0.00,,,0.10,weatherlink.com 1.10,2013-02-24 05:40:00,
2013-02-23 23:55:00,24.7,19.0,29.99,SSW,203,0.0,2.0,79,0.00,,,0.10,weatherlink.com 1.10,2013-02-24 05:55:00,